Змиёвка

Россия / Орловская область     52°40′03″N   36°22′35″E
темп.,
°C
ветер,
м/с
пор.,
м/с
влажн.,
%
обл.,
%
осадки,
мм/ч
давл.,
гПа
погр.,
м
19 мая, ср
ср1900:00+14вюв359696 0.1 1004159
03:00+14юв599398 0.2 1004332
06:00+13юв49955 0.8 1005331
09:00+17ююв687978 0.8 1005799
12:00+18ююв6773100 1.3 10061111
15:00+18юв4572100 2.7 1006863
18:00+15юв4789100 2.3 1005306
21:00+13вюв2297100 4.7 100569
20 мая, чт
чт2000:00+13ююв3597100 1.6 1003258
03:00+11ююв5109597 4.8 1004501
06:00+11юв4898100 0.0 1003448
09:00+11ююв5996100 0.3 1003512
12:00+11ю71195100 2.8 1004723
15:00+12ю4793100 4.0 1006477
18:00+14юз588994 1.1 1006543
21:00+11юз61095100 1.5 1007556
21 мая, пт
пт2100:00+10юз61194100 0.1 1008728
03:00+10зюз61195100 0.1 1009667
06:00+10з51094100 0.0 1011637
09:00+11зсз5684100 0.1 1013840
12:00+14ссз4672100 0.0 1015950
15:00+17ссз3457100 0.0 10151535
18:00+17ссз1262100 0.0 10161476
21:00+13всв117096 0.0 101710
22 мая, сб
сб2200:00+10ююв2288100 0.0 101812
03:00+10св2288100 0.0 101811
06:00+10св3690100 0.0 1018177
09:00+14в5876100 0.0 1018664
12:00+15в567673 0.0 1018929
15:00+15в458198 0.2 1017652
18:00+15всв4580100 0.1 1017522
21:00+12св379498 0.1 1016144
23 мая, вс
вс2300:00+11всв51197100 0.0 1014286
03:00+10всв41098100 0.0 1013295
06:00+11всв51096100 0.0 1012287
09:00+15вюв4589100 0.1 1009436
12:00+18ю3483100 0.2 1008655
15:00+18ююз349091 2.2 1006462
18:00+17юз3893100 0.1 1006351
21:00+15зюз51192100 0.3 1006425